When you browse on this site, cookies collect data to enhance your experience and personalize the content and advertising you see.
Visit our Privacy Policy to learn more. By continuing to use the site, you agree to this use of cookies and data.
  • In Latvia
  • List of Countries
  • For 7 days
  • Water Temperature
  • Satellite Maps
  • Weather Map
  • Weather Widgets
  • user-avatar
    Login

    Hourly Weather Ndjbele

    Today, 23 July, Tuesday

    Time Temperature Precipitation Wind Pressure Humidity
    00:00 +23°C° 0.9 mm 1 mps 716 mmHg 99%
    01:00 +23°C° 0.9 mm 1 mps 716 mmHg 99%
    02:00 +23°C° 0.9 mm 1 mps 715 mmHg 99%
    03:00 +23°C° 0.7 mm 1 mps 715 mmHg 99%
    04:00 +23°C° 0.7 mm 1 mps 715 mmHg 99%
    05:00 +23°C° 0 mm 1 mps 715 mmHg 99%
    06:00 +23°C° 0.4 mm 1 mps 715 mmHg 99%
    07:00 +23°C° 0.4 mm 1 mps 716 mmHg 99%
    08:00 +23°C° 0.4 mm 1 mps 716 mmHg 98%
    09:00 +23°C° 0.4 mm 1 mps 716 mmHg 98%
    10:00 +23°C° 0.4 mm 2 mps 716 mmHg 98%
    11:00 +23°C° 0 mm 2 mps 717 mmHg 96%
    12:00 +23°C° 0.2 mm 2 mps 716 mmHg 95%
    13:00 +24°C° 0.2 mm 2 mps 716 mmHg 95%
    14:00 +24°C° 0.2 mm 2 mps 715 mmHg 94%
    15:00 +24°C° 0.1 mm 2 mps 715 mmHg 94%
    16:00 +24°C° 0.1 mm 2 mps 715 mmHg 94%
    17:00 +23°C° 0.1 mm 2 mps 715 mmHg 94%
    18:00 +23°C° 0 mm 2 mps 716 mmHg 95%
    19:00 +23°C° 0 mm 1 mps 716 mmHg 96%
    20:00 +22°C° 0 mm 1 mps 717 mmHg 97%
    21:00 +22°C° 0 mm 1 mps 717 mmHg 98%
    22:00 +22°C° 0 mm 1 mps 717 mmHg 98%
    23:00 +21°C° 0 mm 1 mps 717 mmHg 99%

    Tomorrow, 24 July, Wednesday

    Time Temperature Precipitation Wind Pressure Humidity
    00:00 +21°C° 0.1 mm 1 mps 716 mmHg 99%
    01:00 +21°C° 0.1 mm 1 mps 716 mmHg 98%
    02:00 +20°C° 0.1 mm 0 mps 716 mmHg 98%
    03:00 +20°C° 0.2 mm 0 mps 716 mmHg 99%
    04:00 +20°C° 0.2 mm 0 mps 716 mmHg 99%
    05:00 +20°C° 0.2 mm 0 mps 717 mmHg 99%
    06:00 +20°C° 0.2 mm 0 mps 717 mmHg 99%
    07:00 +20°C° 0.2 mm 0 mps 717 mmHg 98%
    08:00 +22°C° 0.2 mm 1 mps 717 mmHg 98%
    09:00 +22°C° 0.1 mm 1 mps 717 mmHg 96%
    10:00 +23°C° 0.1 mm 1 mps 717 mmHg 95%
    11:00 +23°C° 0.1 mm 1 mps 718 mmHg 93%
    12:00 +24°C° 0.3 mm 1 mps 717 mmHg 91%
    13:00 +25°C° 0.3 mm 1 mps 716 mmHg 88%
    14:00 +25°C° 0.3 mm 1 mps 716 mmHg 86%
    15:00 +26°C° 0.2 mm 1 mps 716 mmHg 85%
    16:00 +26°C° 0.2 mm 1 mps 716 mmHg 85%
    17:00 +26°C° 0.2 mm 1 mps 715 mmHg 85%
    18:00 +24°C° 0 mm 1 mps 716 mmHg 89%
    19:00 +23°C° 0 mm 1 mps 716 mmHg 93%
    20:00 +20°C° 0 mm 0 mps 717 mmHg 98%
    21:00 +20°C° 0 mm 0 mps 717 mmHg 98%
    22:00 +22°C° 0 mm 1 mps 717 mmHg 98%
    23:00 +22°C° 0 mm 1 mps 717 mmHg 98%

    Day after tomorrow, 25 July, Thursday

    Time Temperature Precipitation Wind Pressure Humidity
    00:00 +22°C° 0 mm 1 mps 717 mmHg 98%
    01:00 +22°C° 0 mm 1 mps 717 mmHg 98%
    02:00 +22°C° 0 mm 1 mps 717 mmHg 98%
    03:00 +22°C° 0 mm 1 mps 716 mmHg 98%
    04:00 +22°C° 0 mm 1 mps 716 mmHg 98%
    05:00 +21°C° 0 mm 1 mps 716 mmHg 98%
    06:00 +22°C° 0 mm 1 mps 717 mmHg 97%
    07:00 +20°C° 0 mm 0 mps 717 mmHg 96%
    08:00 +20°C° 0 mm 0 mps 718 mmHg 95%
    09:00 +23°C° 0.1 mm 1 mps 718 mmHg 91%
    10:00 +25°C° 0.1 mm 1 mps 717 mmHg 87%
    11:00 +26°C° 0.1 mm 1 mps 717 mmHg 83%
    12:00 +26°C° 1.3 mm 1 mps 717 mmHg 84%
    13:00 +27°C° 1.3 mm 1 mps 716 mmHg 86%
    14:00 +27°C° 1.3 mm 1 mps 716 mmHg 87%
    15:00 +27°C° 1.2 mm 1 mps 716 mmHg 90%
    16:00 +26°C° 1.2 mm 1 mps 715 mmHg 92%
    17:00 +26°C° 1.2 mm 1 mps 715 mmHg 95%
    18:00 +25°C° 0.7 mm 1 mps 716 mmHg 96%
    19:00 +24°C° 0.7 mm 1 mps 716 mmHg 97%
    20:00 +23°C° 0.7 mm 1 mps 717 mmHg 98%
    21:00 +23°C° 0.7 mm 1 mps 717 mmHg 99%
    22:00 +23°C° 0.7 mm 1 mps 718 mmHg 99%
    23:00 +23°C° 0.7 mm 1 mps 718 mmHg 99%

    26 July, Friday

    Time Temperature Precipitation Wind Pressure Humidity
    00:00 +22°C° 1.1 mm 1 mps 717 mmHg 99%
    01:00 +21°C° 1.1 mm 2 mps 717 mmHg 99%
    02:00 +21°C° 1.1 mm 2 mps 717 mmHg 99%
    03:00 +22°C° 0.2 mm 1 mps 717 mmHg 99%
    04:00 +22°C° 0.2 mm 1 mps 717 mmHg 99%
    05:00 +22°C° 0.2 mm 1 mps 717 mmHg 99%
    06:00 +22°C° 0.1 mm 1 mps 717 mmHg 99%
    07:00 +23°C° 0.1 mm 1 mps 718 mmHg 98%
    08:00 +23°C° 0.1 mm 1 mps 718 mmHg 98%
    09:00 +23°C° 0.2 mm 1 mps 718 mmHg 96%
    10:00 +24°C° 0.2 mm 1 mps 718 mmHg 93%
    11:00 +25°C° 0.2 mm 1 mps 718 mmHg 91%
    12:00 +26°C° 0.4 mm 1 mps 717 mmHg 85%
    13:00 +27°C° 0.4 mm 1 mps 717 mmHg 80%
    14:00 +28°C° 0.4 mm 1 mps 716 mmHg 74%
    15:00 +27°C° 0.8 mm 1 mps 716 mmHg 80%
    16:00 +26°C° 0.8 mm 1 mps 715 mmHg 86%
    17:00 +25°C° 0.8 mm 1 mps 715 mmHg 93%
    18:00 +25°C° 1 mm 1 mps 716 mmHg 94%
    19:00 +24°C° 1 mm 1 mps 716 mmHg 96%
    20:00 +23°C° 1 mm 2 mps 717 mmHg 98%
    21:00 +23°C° 0.3 mm 1 mps 717 mmHg 98%
    22:00 +23°C° 0.3 mm 1 mps 717 mmHg 98%
    23:00 +23°C° 0.3 mm 1 mps 718 mmHg 99%

    27 July, Saturday

    Time Temperature Precipitation Wind Pressure Humidity
    00:00 +23°C° 0.3 mm 1 mps 717 mmHg 99%
    01:00 +23°C° 0.3 mm 1 mps 717 mmHg 99%
    02:00 +22°C° 0.3 mm 1 mps 716 mmHg 99%
    03:00 +22°C° 0.1 mm 1 mps 716 mmHg 99%
    04:00 +22°C° 0.1 mm 1 mps 716 mmHg 99%
    05:00 +22°C° 0.1 mm 1 mps 717 mmHg 99%
    06:00 +23°C° 0.2 mm 1 mps 717 mmHg 99%
    07:00 +23°C° 0.2 mm 1 mps 717 mmHg 99%
    08:00 +23°C° 0.2 mm 1 mps 718 mmHg 99%
    09:00 +24°C° 0.4 mm 1 mps 718 mmHg 97%
    10:00 +24°C° 0.4 mm 1 mps 718 mmHg 96%
    11:00 +25°C° 0.4 mm 1 mps 718 mmHg 94%
    12:00 +25°C° 1.8 mm 1 mps 717 mmHg 93%
    13:00 +26°C° 1.8 mm 1 mps 716 mmHg 92%
    14:00 +27°C° 1.8 mm 1 mps 715 mmHg 91%
    15:00 +26°C° 1.7 mm 1 mps 715 mmHg 92%
    16:00 +25°C° 1.7 mm 1 mps 715 mmHg 94%
    17:00 +25°C° 1.7 mm 1 mps 715 mmHg 95%
    18:00 +24°C° 1.2 mm 1 mps 716 mmHg 96%
    19:00 +23°C° 1.2 mm 1 mps 716 mmHg 98%
    20:00 +23°C° 1.2 mm 1 mps 717 mmHg 99%
    21:00 +23°C° 0.3 mm 1 mps 717 mmHg 99%
    22:00 +23°C° 0.3 mm 1 mps 717 mmHg 99%
    23:00 +23°C° 0.3 mm 1 mps 717 mmHg 99%

    28 July, Sunday

    Time Temperature Precipitation Wind Pressure Humidity
    00:00 +23°C° 0.5 mm 1 mps 717 mmHg 99%
    01:00 +22°C° 0.5 mm 1 mps 716 mmHg 99%
    02:00 +22°C° 0.5 mm 1 mps 716 mmHg 99%
    03:00 +22°C° 1.9 mm 1 mps 716 mmHg 99%
    04:00 +22°C° 1.9 mm 1 mps 716 mmHg 99%
    05:00 +22°C° 1.9 mm 1 mps 716 mmHg 99%
    06:00 +22°C° 6.6 mm 1 mps 717 mmHg 99%
    07:00 +20°C° 6.6 mm 0 mps 717 mmHg 99%
    08:00 +20°C° 6.6 mm 0 mps 717 mmHg 99%
    09:00 +23°C° 3.5 mm 1 mps 717 mmHg 99%
    10:00 +23°C° 3.5 mm 1 mps 717 mmHg 99%
    11:00 +23°C° 3.5 mm 1 mps 717 mmHg 98%
    12:00 +23°C° 0.2 mm 1 mps 717 mmHg 98%
    13:00 +24°C° 0.2 mm 1 mps 716 mmHg 97%
    14:00 +24°C° 0.2 mm 1 mps 716 mmHg 96%
    15:00 +24°C° 0.1 mm 1 mps 715 mmHg 96%
    16:00 +23°C° 0.1 mm 1 mps 715 mmHg 97%
    17:00 +23°C° 0.1 mm 1 mps 715 mmHg 97%
    18:00 +23°C° 0.1 mm 1 mps 716 mmHg 98%
    19:00 +23°C° 0.1 mm 1 mps 716 mmHg 98%
    20:00 +22°C° 0.1 mm 1 mps 717 mmHg 99%
    21:00 +22°C° 0.1 mm 1 mps 717 mmHg 99%
    22:00 +22°C° 0.1 mm 1 mps 717 mmHg 99%
    23:00 +22°C° 0.1 mm 1 mps 717 mmHg 99%
    Show more